Weather Service Report


721 
ASUS44 KEWX 291010
RWRTX 
SOUTH TEXAS REGIONAL WEATHER ROUNDUP
NATIONAL WEATHER SERVICE AUSTIN/SAN ANTONIO TX
400 AM CST THU JAN 29 2015

NOTE: "FAIR" INDICATED FEW OR NO CLOUDS BELOW 12,000 FEET WITH NO
SIGNIFICANT WEATHER AND/OR OBSTRUCTIONS TO VISIBILITY.

* - THESE STATIONS ARE NOT NWS OR FAA STATIONS...AND ARE NOT SUBJECT
    TO NWS AND FAA QUALITY CONTROL.
 
TXZ171-172-183>190-291100-
TEXAS HILL COUNTRY AND EDWARDS PLATEAU
  
CITY           SKY/WX    TMP DP  RH WIND       PRES   REMARKS
JUNCTION       PTCLDY    43  38  82 W5        30.13S WCI  40          
*LLANO         CLEAR     46  39  76 CALM      30.15S                  
BURNET         CLEAR     51  45  79 W3        30.14S                  
*HORSESHOE BAY CLEAR     60  49  67 W3        30.12S                  
*KERRVILLE     CLEAR     47  44  89 CALM      30.15S                  
*FREDERICKSBRG CLEAR     51  47  87 CALM      30.14S                  
*ROCKSPRINGS   PTCLDY    54  43  66 S6        30.15S                  
*BOERNE STAGE  PTCLDY    50  45  81 SW3       30.15S                  
*CASTROVILLE   PTCLDY    46  44  95 CALM      30.15S                  
HONDO          CLEAR     45  43  93 N7        30.15S WCI  41          
*UVALDE        CLEAR     50  46  86 NE5       30.13S WCI  49          
DEL RIO        CLEAR     56  43  61 E9        30.09S                  
LAUGHLIN AFB   CLEAR     54  44  71 E10       30.10S                  
CARRIZO SPRGS  CLEAR     50  46  87 CALM      30.10S                  
$$

TXZ173-191>194-202-209-217>225-228-291100-
CENTRAL AND SOUTH CENTRAL TEXAS
  
CITY           SKY/WX    TMP DP  RH WIND       PRES   REMARKS
GEORGETOWN     CLEAR     54  50  87 SW7       30.12R                  
AUSTIN/BERGSTM PTCLDY    46  46 100 CALM      30.14R                  
AUSTIN/MABRY   CLEAR     54  52  93 CALM      30.14S                  
*AUSTIN/EXEC     N/A    N/A N/A N/A MISG        N/A                   
*LAGO VISTA    CLEAR     60  53  77 SW8       30.13S                  
SAN MARCOS     CLOUDY    54  52  94 SW8       30.14S VSB 1/4          
NEW BRAUNFELS  FOG       53  51  93 SW3       30.13S VSB 1/4          
RANDOLPH AFB   MOCLDY    55  55 100 SW5       30.14S                  
PT SAN ANTONIO PTCLDY    49  48  98 N2        30.12F                  
SAN ANTONIO    MOCLDY    53  51  93 CALM      30.14F                  
STINSON FIELD  CLOUDY    52  51  97 CALM      30.12S                  
*PLEASANTON    FOG       55  54  97 SE3       30.14S VSB<1/4          
*LA GRANGE     CLOUDY    62  61  96 S6        30.13S                  
*GIDDINGS      CLOUDY    59  58  96 SW9       30.18S                  
*GONZALES      NOT AVBL                                               
$$

TXZ163>164-176>182-195>201-210>213-226-227-235-291100-
SOUTHEAST TEXAS
  
CITY           SKY/WX    TMP DP  RH WIND       PRES   REMARKS
COLLEGE STN    CLOUDY    59  57  93 S9        30.14S                  
*BRYAN         CLOUDY    58  58  97 S8        30.15S                  
*CALDWELL      PTCLDY    55  55 100 S6        30.16S                  
*CROCKETT      PTCLDY    54  54 100 SW3       30.17S FOG              
*BRENHAM       CLOUDY    62  60  95 S5        30.15S                  
HUNTSVILLE     CLOUDY    60  58  92 SW8       30.14S                  
CONROE         FOG       50  49  96 CALM      30.16S VSB 1/2          
HOUSTON BUSH   PTCLDY    53  53 100 CALM      30.15F FOG              
HOUSTON HOBBY  FOG       54  54 100 S3        30.15F VSB 1/2          
*HOUSTON SW AP FOG       43  43 100 CALM      30.16F VSB 1/4          
PEARLAND       FOG       52  50  93 SE3       30.17F VSB 1/2          
HOUSTON HOOKS  CLOUDY    55  55 100 CALM      30.15S FOG              
ELLINGTON FLD  NOT AVBL                                               
SUGAR LAND     FOG       54  53  97 S3        30.15S VSB 1/4          
*HOUSTON EXEC    N/A    N/A N/A N/A MISG        N/A                   
*CLEVELAND MUN RAIN      57  57 100 S5        30.16F VSB 1/2          
*WHARTON       FOG       53  53  99 S5        30.16S VSB 1/2          
*COLUMBUS      FOG       58  58 100 S5        30.15R VSB 1/2          
$$

TXZ214>216-236>238-291100-
THE UPPER TEXAS COAST
  
CITY           SKY/WX    TMP DP  RH WIND       PRES   REMARKS
*ORANGE        FOG       54  54 100 CALM      30.18F VSB 1/4          
PORT ARTHUR    CLEAR     54  54 100 S7        30.16F FOG              
GALVESTON      PTCLDY    55  55 100 S6        30.17F                  
ANGLETON       FOG       53  53 100 S3        30.16S VSB 1/4          
*BAY CITY      FOG       54  54 100 S3        30.16S VSB 1/2          
PALACIOS       FOG       55  55 100 S6        30.15F VSB 1/2          
$$

TXZ229>234-239>247-291100-
TEXAS COASTAL BEND AND RIO GRANDE PLAINS
  
CITY           SKY/WX    TMP DP  RH WIND       PRES   REMARKS
VICTORIA       FOG       53  52  96 CALM      30.15F VSB 1/4          
*BEEVILLE      FOG       52  52 100 CALM      30.13F VSB<1/4          
ROCKPORT       CLEAR     61  59  93 S5        30.14F                  
*PORT ARANSAS  CLEAR     60  60 100 S6        30.14S                  
*PORT LAVACA   FOG       54  54 100 S3        30.15F VSB 1/2          
*INGLESIDE     FOG       54  53  97 SE7       30.13F VSB 1/4          
CORPUS CHRISTI PTCLDY    55  54  96 SE8       30.13F                  
CORPUS NAS     CLEAR     60  60 100 S7        30.14S                  
*ROBSTOWN      NOT AVBL                                               
ALICE          FOG       54  53  97 SE6       30.12F VSB 1/4          
KINGSVILLE NAS FOG       52  52 100 E5        30.13F VSB 1            
COTULLA        CLEAR     56  54  93 SE7       30.11S                  
*FAITH RANCH   CLEAR     57  50  77 SE5       30.10R                  
LAREDO         NOT AVBL                                               
$$

TXZ248>255-291100-
DEEP SOUTH TEXAS
  
CITY           SKY/WX    TMP DP  RH WIND       PRES   REMARKS
BROWNSVILLE    CLEAR     59  58  96 SE6       30.13F                  
PORT ISABEL    CLEAR     59  57  93 SE7       30.13F                  
*SOUTH PADRE   CLEAR     59  59 100 SW6       30.13F                  
HARLINGEN      CLEAR     53  53 100 SE5       30.12F FOG              
*HEBBRONVILLE  HVY RAIN  58  58  98 SE8       30.12S VSB 1/2          
MCALLEN        CLEAR     59  58  96 SE9       30.12S FOG              
*WESLACO       FOG       61  59  94 SE3       30.13S VSB 1/4          
FALFURRIAS     CLOUDY    54  53  95 CALM      30.12F VSB 3/4          
EDINBURG       CLOUDY    64  62  92 SE7       30.12S FOG              
*ZAPATA        CLEAR     59  58  97 SE7       30.09                   
$$

TXZ213>215-236>238-242>244-246-247-251-254-255-291100-
CMAN STATIONS
  
STATION/POSITION TIME  TEMP    WIND        PRES    WAVE
                       AIR SEA DIR/SP/G            HT/PER
                 (UTC) (F)     (DEG/KT/KT) (MB)    (FT/S)
SABINE PASS      1000   58 55  180/  5/  7 1021.6
SEA RIM ST PARK  1000   58     170/  7/  9 1022.0
NORTH JETTY/GLS  1000   59 58  190/  7/  8   N/A
EAGLE POINT      1000   57 56  200/  3/  4 1021.3
MORGANS POINT    1000   56     170/  3/  4 1021.1
MISSION/ARANSAS  0900   60     VRB  6      1021.0
PORT O'CONNOR    1000          130/  3/  3   N/A
PORT ARANSAS     1000   62 60  140/  8/  9 1020.9
MALAQUITE BEACH  1000   62 62  140/ 10/ 10 1019.9
BAFFIN BAY       1000   60     140/  8/  9 1020.4
PORT ISABEL      1000   62 60  140/  5/  6 1020.3
$$

GMZ080-GMZ150>470-291100-
OFFSHORE BUOY REPORTS
  
STATION/POSITION TIME  TEMP    WIND        PRES    WAVE
                       AIR SEA DIR/SP/G            HT/PER
                 (UTC) (F)     (DEG/KT/KT) (MB)    (FT/S)
20 E GALVESTON   1000   58 57  150/  6/  6 1021.3    1/ 4
90 E PT ARANSAS  1000   68 68  170/ 10/ 12 1021.6    2/ 4
35 NE PT MANSFLD 1000   68 70  160/ 10/ 10 1020.5    1/ 4
200 E PT ISABEL  1000   69 72  150/  6/  6 1022.2    1/ 3
$$

Return to Home page


Western Regional Climate Center, wrcc@dri.edu